Regional Weather Roundup
Issued by NWS

Home | Current Version | Previous Version | Text Only | Print | Product List | Glossary On
Versions: 1 2 3 4 5 6 7 8 9 10 11 12 13 14 15 16 17 18 19 20 21 22 23 24 25 26 27 28 29 30 31 32 33 34 35 36 37 38 39 40 41 42 43 44 45 46 47 48 49 50
000
ASUS43 KOAX 212102
RWRNE

WEATHER ROUNDUP FOR NEBRASKA
NATIONAL WEATHER SERVICE OMAHA NE
400 PM CDT THU AUG 21 2014

NOTES: SATELLITE DATA IS BEING USED TO AUGMENT CLOUD COVER ABOVE
       12000 FEET.
       "FAIR" INDICATES FEW OR NO CLOUDS BELOW 12,000 FEET WITH NO
       SIGNIFICANT WEATHER AND/OR OBSTRUCTIONS TO VISIBILITY.

  * THESE STATIONS DO NOT REPORT WEATHER SUCH AS RAIN...SNOW OR FOG.

NEZ001>004-019>022-054>056-212200-
NEBRASKA PANHANDLE

CITY           SKY/WX    TMP DP  RH WIND       PRES   REMARKS
SCOTTSBLUFF    MOSUNNY   88  46  23 NW7       30.00F
ALLIANCE       MOSUNNY   86  49  27 CALM      29.99F
CHADRON        SUNNY     89  53  29 VRB5      29.93F
KIMBALL        MOSUNNY   84  42  22 N5        30.06S
SIDNEY         SUNNY     88  47  24 MISG      30.03F
$$

NEZ057>060-069>072-079>082-212200-
SOUTHWEST NEBRASKA

CITY           SKY/WX    TMP DP  RH WIND       PRES   REMARKS
NORTH PLATTE   SUNNY     88  65  46 SE5       29.90F HX  90
IMPERIAL       SUNNY     90  49  24 N9        29.95S
LEXINGTON      SUNNY     89  68  49 CALM      29.89S HX  92
MCCOOK         MOSUNNY   94  55  26 NW7       29.89S HX  92
OGALLALA       SUNNY     87  54  31 S6        29.94F
$$

NEZ005>010-023>029-035>040-094-212200-
NORTH CENTRAL NEBRASKA

CITY           SKY/WX    TMP DP  RH WIND       PRES   REMARKS
VALENTINE      SUNNY     88  58  36 E8        29.93S
AINSWORTH      SUNNY     85  61  44 NE6       29.92F
BROKEN BOW     SUNNY     89  67  47 N7        29.90S HX  92
O`NEILL        SUNNY     87  69  55 NW7       29.88S HX  91
ORD            SUNNY     87  68  52 VRB3      29.86S HX  90
THEDFORD       SUNNY     87  57  35 E3        29.95S
$$

NEZ041-046>049-061>064-073>077-083>087-212200-
SOUTH CENTRAL NEBRASKA

CITY           SKY/WX    TMP DP  RH WIND       PRES   REMARKS
GRAND ISLAND   MOSUNNY   87  71  58 VRB6      29.87S HX  93
AURORA         MOSUNNY   84  73  69 CALM      29.87S
HASTINGS       SUNNY     85  68  56 CALM      29.87S
HEBRON         SUNNY     88  69  52 S6        29.83S HX  93
HOLDREGE       SUNNY     87  70  57 CALM      29.88S HX  92
KEARNEY *      SUNNY     88  73  62 E6        29.88S HX  96
YORK           MOSUNNY   84 N/A N/A SW5       29.86F
$$

NEZ011>018-030>034-042>045-212200-
NORTHEAST NEBRASKA

CITY           SKY/WX    TMP DP  RH WIND       PRES   REMARKS
NORFOLK        SUNNY     90  71  53 W7        29.83R HX  96
ALBION         SUNNY     88  67  49 SW3       29.86R HX  91
BLAIR          SUNNY     88  70  56 SW9       29.85S HX  93
FREMONT        SUNNY     91  67  44 SW12      29.84S HX  94
TEKAMAH        SUNNY     92  73  53 SW8       29.81S HX 100
WAYNE          SUNNY     88  74  62 W7        29.83S HX  97
$$

NEZ050>053-065>068-078-088>093-212200-
SOUTHEAST NEBRASKA

CITY           SKY/WX    TMP DP  RH WIND       PRES   REMARKS
LINCOLN        CLOUDY    87  71  58 NW7       29.85S HX  93
OMAHA EPPLEY   MOSUNNY   91  68  46 SW9       29.83F HX  95
BEATRICE       CLOUDY    91  73  55 S8        29.82F HX  99
FALLS CITY     PTSUNNY   96  73  47 S12G23    29.80F HX 105
NEBRASKA CITY  CLOUDY    84  76  76 NE8       29.83F HX  92
PLATTSMOUTH    PTSUNNY   89  72  57 W3        29.84S HX  95
$$

NEZ044-045-051>053-067-212200-
OMAHA AREA

CITY           SKY/WX    TMP DP  RH WIND       PRES   REMARKS
OMAHA EPPLEY   MOSUNNY   91  68  46 SW9       29.83F HX  95
BLAIR          SUNNY     88  70  56 SW9       29.85S HX  93
FREMONT        SUNNY     91  67  44 SW12      29.84S HX  94
MILLARD        MOSUNNY   89  72  55 S6        29.83S HX  96
OFFUTT AFB     MOSUNNY   90  76  63 VRB3      29.83F HX 101
PLATTSMOUTH    PTSUNNY   89  72  57 W3        29.84S HX  95
WAHOO          FAIR      89  68  48 SW7G16    29.84S HX  93
$$


USA.gov is the U.S. government's official web portal to all federal, state and local government web resources and services.